Flag for Norway

Past Weather in Trondheim, Norway — Yesterday and Last 2 Weeks

Now
50 °F

Passing clouds.


Feels Like: 48 °F
Forecast: 62 / 53 °F
Wind: 6 mph from Southeast

Location: Trondheim / Vaernes

Current Time: Aug 9, 2020 at 1:57:21 am

Latest Report: Aug 9, 2020 at 12:50 am


Visibility: N/A

Pressure: 30.30 "Hg

Humidity: 94%

Dew Point: 48 °F

Location of TrondheimLocation

Past Weather in Trondheim — Graph

°F

Trondheim Temperature Yesterday

Maximum temperature yesterday: 75 °F (at 10:50 am)
Minimum temperature yesterday: 52 °F (at 11:20 pm)
Average temperature yesterday: 62 °F

High & Low Weather Summary for the Past Weeks

 TemperatureHumidityPressure
High77 °F (Aug 7, 5:50 pm)100% (Jul 26, 1:50 am)30.30 "Hg (Jul 26, 1:50 am)
Low43 °F (Jul 26, 3:50 am)36% (Jul 29, 6:50 pm)29.47 "Hg (Jul 29, 12:50 am)
Average61 °F79%29.80 "Hg
* Reported Jul 25 12:20 am — Aug 9 12:20 am, Trondheim. Weather by CustomWeather, © 2020

Note: Actual official high and low records may vary slightly from our data, if they occured in-between our weather recording intervals... More about our weather records

Trondheim Weather History for the Previous 24 Hours

Scroll right to see more
 ConditionsComfort  
Time TempWeatherWind HumidityBarometerVisibility
12:20 am
Sun, Aug 9
50 °FPassing clouds.3 mph94%30.30 "HgN/A
11:50 pm
Sat, Aug 8
52 °FPassing clouds.3 mph88%30.27 "HgN/A
11:20 pm52 °FCool.6 mph82%30.27 "HgN/A
10:50 pm54 °FCool.12 mph82%30.27 "HgN/A
10:20 pm55 °FPassing clouds.12 mph77%30.27 "HgN/A
9:50 pm57 °FPassing clouds.17 mph72%30.27 "HgN/A
9:20 pm57 °FBroken clouds.18 mph72%30.27 "HgN/A
8:50 pm59 °FBroken clouds.16 mph72%30.24 "HgN/A
8:20 pm57 °FScattered showers. Broken clouds.17 mph77%30.24 "HgN/A
7:50 pm59 °FScattered showers. Broken clouds.24 mph72%30.21 "HgN/A
7:20 pm57 °FScattered showers. Broken clouds.17 mph82%30.21 "HgN/A
6:50 pm59 °FScattered showers. Broken clouds.24 mph82%30.21 "HgN/A
6:20 pm59 °FRain showers. Broken clouds.26 mph82%30.18 "HgN/A
5:50 pm61 °FPartly sunny.26 mph77%30.15 "HgN/A
5:20 pm63 °FPartly sunny.24 mph77%30.15 "HgN/A
4:50 pm63 °FPartly sunny.24 mph83%30.12 "HgN/A
4:20 pm64 °FThundershowers. Broken clouds.26 mph83%30.09 "HgN/A
3:50 pm64 °FThunderstorms. Broken clouds.23 mph88%30.07 "HgN/A
3:20 pm66 °FScattered showers. Broken clouds.29 mph78%30.01 "HgN/A
2:50 pm72 °FScattered showers. Broken clouds.5 mph69%29.98 "HgN/A
2:20 pm73 °FPassing clouds.6 mph65%29.98 "HgN/A
1:50 pm72 °FSunny.5 mph73%29.98 "Hg10 mi
1:20 pm70 °FSunny.6 mph73%29.98 "Hg10 mi
12:50 pm68 °FSunny.9 mph83%29.98 "Hg10 mi
12:20 pm68 °FSunny.8 mph78%29.98 "Hg10 mi
11:50 am68 °FSunny.9 mph78%30.01 "Hg10 mi
11:20 am68 °FSunny.10 mph83%30.01 "Hg10 mi
10:50 am75 °FSunny.2 mph57%30.01 "Hg10 mi
10:20 am73 °FPassing clouds.3 mph65%30.01 "HgN/A
9:20 am70 °FSunny.5 mph73%30.04 "Hg10 mi
8:50 am66 °FPassing clouds.6 mph78%30.04 "HgN/A
8:20 am64 °FSunny.6 mph78%30.04 "Hg10 mi
7:50 am59 °FSunny.9 mph88%30.07 "Hg10 mi
7:20 am59 °FSunny.5 mph88%30.07 "Hg10 mi
6:50 am59 °FSunny.7 mph88%30.07 "Hg10 mi
6:20 am59 °FSunny.8 mph88%30.07 "Hg10 mi
5:50 am59 °FSunny.9 mph88%30.07 "Hg10 mi
5:20 am57 °FSunny.7 mph100%30.07 "Hg10 mi
4:50 am59 °FPassing clouds.7 mph94%30.09 "HgN/A
4:20 am59 °FPassing clouds.7 mph94%30.09 "HgN/A
3:50 am59 °FOvercast.8 mph94%30.09 "HgN/A
3:20 am59 °FPassing clouds.7 mph94%30.09 "HgN/A
2:50 am59 °FOvercast.7 mph94%30.09 "HgN/A
2:20 am61 °FOvercast.5 mph94%30.09 "HgN/A
1:50 am61 °FPassing clouds.5 mph94%30.09 "HgN/A
1:20 am61 °FPassing clouds.3 mph94%30.09 "HgN/A
Weather by CustomWeather, © 2020

See weather overview